User: anonymous   Login
Location: Lower Kingswood
(51.2667°N, 0.2167°W)
Time: 00:07:43
(UTC+00:00)
Language:

Cosmos 44 - Orbit

View from above orbital plane
View from above orbital plane
View from above satellite
View from above satellite

Ground track
Ground track

The orbit data is extracted from the following two-line orbital elements,

1 00876U 64053A   24055.37754043  .00000359  00000-0  79856-4 0  9994
2 00876  65.0602 297.0467 0151379 237.4543 121.1861 14.64552305165042
Epoch (UTC): 24 February 2024 09:03:39
Eccentricity: 0.0151379
inclination: 65.0602°
perigee height: 571 km
apogee height: 785 km
right ascension of ascending node: 297.0467°
argument of perigee: 237.4543°
revolutions per day: 14.64552305
mean anomaly at epoch: 121.1861°
orbit number at epoch: 16504

The dashed part of the orbit path shows where the satellite is in the earth's shadow,  

DLR